[[{"header":{"parameterUnit":"m.s-1","parameterCategory":1,"la1":30.2991,"la2":30.254,"lo1":-89.0895,"lo2":-89.0444,"dy":0.0017,"dx":0.0017,"nx":28,"ny":28,"refTime":"2024-08-26T21:00:00:Z","depth":0,"parameterNumber":2,"parameterNumberName":"U-component_of_WINDS"},"data":[0,0,0,0,0,0,0,0,0,0,0,0,0,0,0,0,0,0,0,0,0,0,0,0,0,0,0,0,0,0,0,0,0,0,0,0,0,0,0,0,0,0,0,0,0,0,0,0,0,0,0,0,0,0,0,0,0,0,-3.0206,-3.0206,0,-3.0175,-3.0175,-3.0174,-3.012,-3.0119,-3.0118,-3.0117,-3.0084,-3.0084,-3.0084,0,0,0,0,0,0,0,0,0,0,0,0,0,-3.0218,-3.0218,-3.0206,-3.0206,-3.0205,-3.0175,-3.0175,-3.0174,-3.012,-3.0119,-3.0118,-3.0117,-3.0084,-3.0084,-3.0084,0,0,0,0,0,0,0,0,0,0,0,0,0,-3.0203,-3.0218,-3.0206,-3.0175,-3.0172,-3.0175,-3.0175,-3.0174,-3.0121,-3.0119,-3.0117,-3.0116,-3.0084,-3.0084,-3.0084,-3.0115,0,0,-3.0084,-3.0084,0,0,0,0,0,0,0,0,-3.0204,-3.0202,-3.018,-3.0177,-3.0173,-3.015,-3.0167,-3.0154,-3.0121,-3.014,-3.0117,-3.0115,-3.0107,-3.0105,-3.0102,-3.0113,-3.0112,-3.0084,-3.0084,-3.0084,-3.0084,0,0,0,0,0,0,0,-3.0205,-3.0203,-3.0194,-3.0179,-3.0176,-3.0162,-3.0158,-3.0164,-3.0132,-3.0138,-3.0134,-3.0131,-3.0105,-3.0102,-3.0101,-3.0111,-3.0084,-3.0084,-3.0084,-3.0084,-3.0148,-3.0149,0,0,0,0,0,0,-3.021,-3.0204,-3.0195,-3.0193,-3.0185,-3.0163,-3.0159,-3.0159,-3.0132,-3.0126,-3.0133,-3.0129,-3.0103,-3.0101,-3.01,-3.0134,-3.0084,-3.0084,-3.0084,-3.0146,-3.0148,-3.015,0,0,0,0,0,0,-3.0211,-3.021,-3.0196,-3.0198,-3.0195,-3.0165,-3.0165,-3.0159,-3.0157,-3.0128,-3.0122,-3.0136,-3.0102,-3.01,-3.0112,-3.0132,-3.0084,-3.0084,-3.0144,-3.0147,-3.0149,-3.0204,0,0,0,0,0,0,-3.0212,-3.0211,-3.0222,-3.0198,-3.0195,-3.0208,-3.0166,-3.016,-3.0157,-3.0152,-3.0129,-3.0124,-3.01,-3.0112,-3.0112,-3.0132,-3.0084,-3.0142,-3.0145,-3.0148,-3.02,-3.0208,-3.0215,0,0,0,0,0,-3.0212,-3.0238,-3.0223,-3.0222,-3.0208,-3.021,-3.0208,-3.018,-3.0159,-3.017,-3.0152,-3.0125,-3.0131,-3.0114,-3.0113,-3.0133,-3.0141,-3.0145,-3.0148,-3.0197,-3.0206,-3.0215,0,0,0,0,0,0,-3.0263,-3.0234,-3.0217,-3.0236,-3.0226,-3.0201,-3.0213,-3.0191,-3.0186,-3.0182,-3.0148,-3.0143,-3.016,-3.0148,-3.0129,-3.0163,-3.0132,-3.0136,-3.0169,-3.0178,-3.0185,-3.0186,-3.0084,0,0,0,0,0,-3.0277,-3.0281,-3.0255,-3.0274,-3.0271,-3.0243,-3.0243,-3.0223,-3.0211,-3.0206,-3.0189,-3.0178,-3.0178,-3.0178,-3.0175,-3.02,-3.0194,-3.0213,-3.0221,-3.0227,-3.023,-3.0242,-3.025,-3.0162,-3.0162,-3.0162,0,0,-3.0304,-3.0289,-3.0293,-3.0284,-3.0274,-3.0279,-3.024,-3.0246,-3.0249,-3.0207,-3.0217,-3.0205,-3.0191,-3.0209,-3.0216,-3.02,-3.0253,-3.0232,-3.0237,-3.0236,-3.0246,-3.0255,-3.0262,-3.0165,-3.0164,-3.0164,0,0,-3.0357,-3.0346,-3.0361,-3.0353,-3.0338,-3.0321,-3.0325,-3.0304,-3.0294,-3.0305,-3.0273,-3.0277,-3.0277,-3.0268,-3.0264,-3.0317,-3.0292,-3.0318,-3.0354,-3.0367,-3.0374,-3.038,-3.0398,-3.0405,-3.0321,-3.0321,-3.0321,0,-3.0392,-3.0398,-3.0371,-3.038,-3.0377,-3.0341,-3.0356,-3.0349,-3.0335,-3.0334,-3.0317,-3.0317,-3.0305,-3.0321,-3.0334,-3.0332,-3.0335,-3.0318,-3.0375,-3.0381,-3.0386,-3.0403,-3.041,-3.0324,-3.0324,-3.0324,-3.0323,0,-3.0443,-3.0448,-3.0461,-3.045,-3.0449,-3.0461,-3.0436,-3.0438,-3.042,-3.0404,-3.0416,-3.0401,-3.0396,-3.0399,-3.038,-3.0413,-3.0403,-3.0381,-3.0349,-3.0398,-3.0413,-3.0419,-3.0329,-3.0328,-3.0327,-3.0326,0,0,-3.0522,-3.0498,-3.0503,-3.0498,-3.0482,-3.0485,-3.0496,-3.0492,-3.0495,-3.0488,-3.0495,-3.0498,-3.0478,-3.0473,-3.0454,-3.0466,-3.0508,-3.0442,-3.0441,-3.0453,-3.0543,-3.0558,-3.0566,-3.0493,-3.0494,-3.0495,-3.0544,0,-3.0569,-3.0586,-3.0564,-3.0586,-3.059,-3.0558,-3.0568,-3.0559,-3.0546,-3.0548,-3.0534,-3.0536,-3.051,-3.0507,-3.0517,-3.0501,-3.0525,-3.0497,-3.0499,-3.0499,-3.0501,-3.0574,-3.0589,-3.0635,-3.0549,-3.055,-3.0551,0,-3.0625,-3.0621,-3.0644,-3.0628,-3.0629,-3.0638,-3.0634,-3.0636,-3.0627,-3.0616,-3.0613,-3.0591,-3.0601,-3.0573,-3.0586,-3.0568,-3.0568,-3.0561,-3.0562,-3.0558,-3.0526,-3.0571,-3.0649,-3.0656,-3.056,-3.056,-3.0559,0,-3.0679,-3.068,-3.0694,-3.0691,-3.0673,-3.068,-3.0673,-3.0662,-3.0662,-3.0658,-3.0658,-3.0656,-3.0654,-3.0653,-3.0631,-3.0612,-3.0647,-3.0616,-3.0638,-3.0638,-3.0644,-3.0643,-3.0722,-3.0648,-3.0648,-3.0648,-3.0648,0,-3.0732,-3.0747,-3.0718,-3.0726,-3.0743,-3.0718,-3.0735,-3.0724,-3.0716,-3.0721,-3.0695,-3.0701,-3.0673,-3.0677,-3.066,-3.0674,-3.0673,-3.0665,-3.066,-3.0666,-3.0667,-3.0663,-3.0658,-3.065,-3.0649,-3.0649,-3.0649,0,-3.0793,-3.0775,-3.0788,-3.0771,-3.0767,-3.078,-3.0765,-3.0772,-3.0759,-3.0767,-3.0768,-3.0747,-3.0749,-3.0729,-3.0728,-3.0717,-3.0737,-3.0728,-3.0741,-3.0737,-3.0759,-3.0756,-3.0835,-3.0844,-3.0768,-3.0768,-3.0769,0,-3.0827,-3.0837,-3.0823,-3.0825,-3.082,-3.0824,-3.0824,-3.0802,-3.0803,-3.0794,-3.0803,-3.0804,-3.0803,-3.0809,-3.0794,-3.0793,-3.0782,-3.081,-3.0781,-3.0788,-3.0781,-3.0779,-3.078,-3.0815,-3.0816,-3.0817,-3.0817,0,-3.0888,-3.0879,-3.0881,-3.088,-3.0881,-3.0879,-3.0875,-3.0879,-3.0854,-3.0857,-3.086,-3.086,-3.086,-3.0862,-3.0859,-3.0851,-3.083,-3.0827,-3.0832,-3.0837,-3.0843,-3.0838,-3.0754,-3.0825,-3.0824,-3.0823,-3.0823,-3.0823,-3.0935,-3.0944,-3.0935,-3.0938,-3.0933,-3.0931,-3.0937,-3.0926,-3.0928,-3.0927,-3.0914,-3.092,-3.0912,-3.0906,-3.0901,-3.0905,-3.0892,-3.0899,-3.09,-3.0902,-3.0905,-3.0845,-3.0905,-3.0905,-3.0905,-3.0904,-3.0904,0,-3.0994,-3.0988,-3.0991,-3.0987,-3.099,-3.0972,-3.0968,-3.0971,-3.0977,-3.0972,-3.0972,-3.0977,-3.0979,-3.0965,-3.0965,-3.0972,-3.0962,-3.0972,-3.097,-3.0969,-3.0918,-3.0913,-3.098,-3.098,-3.098,-3.098,-3.098,-3.098,-3.1025,-3.1038,-3.1029,-3.104,-3.1034,-3.104,-3.1039,-3.1037,-3.1033,-3.1039,-3.1041,-3.1033,-3.1024,-3.1024,-3.1026,-3.1022,-3.1022,-3.1035,-3.1028,-3.098,-3.0972,-3.0965,-3.096,-3.1036,-3.1036,-3.1078,-3.1078,-3.1079]},{"header":{"parameterUnit":"m.s-1","parameterCategory":1,"la1":30.2991,"la2":30.254,"lo1":-89.0895,"lo2":-89.0444,"dy":0.0017,"dx":0.0017,"nx":28,"ny":28,"refTime":"2024-08-26T21:00:00:Z","depth":0,"parameterNumber":3,"parameterNumberName":"V-component_of_WINDS"},"data":[0,0,0,0,0,0,0,0,0,0,0,0,0,0,0,0,0,0,0,0,0,0,0,0,0,0,0,0,0,0,0,0,0,0,0,0,0,0,0,0,0,0,0,0,0,0,0,0,0,0,0,0,0,0,0,0,0,0,3.0832,3.0831,0,3.0804,3.0804,3.0804,3.0834,3.0835,3.0837,3.0838,3.0802,3.08,3.0798,0,0,0,0,0,0,0,0,0,0,0,0,0,3.0903,3.0902,3.0832,3.0831,3.0831,3.0805,3.0804,3.0804,3.0834,3.0835,3.0837,3.0838,3.0802,3.08,3.0797,0,0,0,0,0,0,0,0,0,0,0,0,0,3.0873,3.0901,3.0832,3.0843,3.0844,3.0805,3.0804,3.0804,3.0834,3.0836,3.0837,3.0839,3.0803,3.08,3.0797,3.0743,0,0,3.0788,3.0786,0,0,0,0,0,0,0,0,3.0875,3.0871,3.0842,3.0842,3.0843,3.0825,3.0816,3.0783,3.0833,3.0837,3.0838,3.084,3.0807,3.0804,3.0795,3.0741,3.0739,3.0787,3.0785,3.0784,3.0783,0,0,0,0,0,0,0,3.0877,3.0872,3.0821,3.0841,3.0842,3.0847,3.0845,3.081,3.0812,3.0837,3.0839,3.0836,3.0808,3.0798,3.0794,3.0739,3.0787,3.0785,3.0783,3.0782,3.0639,3.0638,0,0,0,0,0,0,3.0879,3.0873,3.0822,3.082,3.0864,3.0845,3.0842,3.0829,3.0813,3.0812,3.0835,3.0838,3.0802,3.0798,3.0793,3.0729,3.0784,3.0781,3.0779,3.0641,3.0639,3.0637,0,0,0,0,0,0,3.088,3.0874,3.0823,3.0847,3.0841,3.0842,3.0826,3.0827,3.0817,3.0811,3.0811,3.0824,3.0803,3.0797,3.0756,3.0728,3.078,3.0777,3.0644,3.0641,3.0638,3.0599,0,0,0,0,0,0,3.0882,3.0874,3.0855,3.0847,3.084,3.0788,3.0825,3.0825,3.0813,3.0816,3.0801,3.08,3.0804,3.076,3.0753,3.0724,3.0775,3.0646,3.0642,3.0639,3.0603,3.0595,3.0589,0,0,0,0,0,3.0885,3.0843,3.0854,3.0847,3.0816,3.0786,3.0782,3.0789,3.081,3.079,3.0787,3.0801,3.0732,3.0756,3.0747,3.0718,3.0648,3.0643,3.0639,3.0606,3.0597,3.0589,0,0,0,0,0,0,3.0845,3.0842,3.0854,3.0809,3.0798,3.0791,3.0766,3.0779,3.0759,3.0763,3.0771,3.0767,3.0723,3.0716,3.0742,3.0665,3.0693,3.0687,3.0671,3.0662,3.0655,3.0657,3.0772,0,0,0,0,0,3.0831,3.0809,3.0807,3.0768,3.0762,3.0765,3.0752,3.0759,3.0747,3.0741,3.0735,3.072,3.0695,3.0678,3.0655,3.0602,3.0599,3.0578,3.0571,3.0565,3.0559,3.0531,3.0521,3.0623,3.0623,3.0623,0,0,3.0802,3.0798,3.0783,3.076,3.0752,3.0727,3.076,3.0732,3.0713,3.0736,3.0697,3.0692,3.0676,3.0629,3.0607,3.0621,3.0531,3.056,3.0555,3.0552,3.0525,3.0516,3.0507,3.062,3.062,3.0621,0,0,3.0736,3.0732,3.0699,3.0691,3.068,3.0683,3.0675,3.0666,3.0665,3.0627,3.0643,3.0619,3.0577,3.0565,3.0553,3.0485,3.0497,3.0477,3.0439,3.0412,3.0404,3.0396,3.0371,3.0363,3.0471,3.0471,3.0471,0,3.0701,3.0666,3.0679,3.0651,3.064,3.0663,3.0628,3.0619,3.0599,3.059,3.0607,3.0555,3.0546,3.0496,3.048,3.047,3.046,3.0478,3.0404,3.0397,3.0391,3.0367,3.0358,3.0469,3.0469,3.0469,3.0469,0,3.0623,3.0599,3.0573,3.0557,3.0543,3.0512,3.0518,3.0502,3.0511,3.0511,3.0471,3.0462,3.0437,3.0426,3.0433,3.0377,3.0387,3.0404,3.0432,3.0378,3.0356,3.0347,3.0465,3.0466,3.0467,3.0467,0,0,3.0529,3.0523,3.0513,3.0507,3.0497,3.0478,3.0447,3.0426,3.0412,3.0398,3.0371,3.0336,3.0352,3.0339,3.0345,3.032,3.0267,3.034,3.034,3.0326,3.0204,3.0191,3.018,3.0276,3.0274,3.0273,3.0205,0,3.0463,3.0413,3.0425,3.0374,3.0351,3.0374,3.0347,3.0337,3.0336,3.0315,3.0314,3.0289,3.0312,3.0305,3.0282,3.0278,3.0242,3.0283,3.0249,3.0247,3.0251,3.0169,3.0154,3.0091,3.0197,3.0195,3.0194,0,3.0379,3.0366,3.0314,3.0309,3.03,3.0276,3.0258,3.0239,3.0227,3.0229,3.0215,3.0226,3.0193,3.0224,3.0179,3.0206,3.0193,3.0189,3.0187,3.0183,3.0217,3.0161,3.0071,3.0062,3.0181,3.0182,3.0183,0,3.0316,3.0284,3.025,3.0243,3.0237,3.0219,3.0215,3.0206,3.0193,3.0177,3.0168,3.0147,3.0135,3.0118,3.0122,3.0144,3.0075,3.0106,3.0074,3.0074,3.0057,3.0058,2.9962,3.005,3.005,3.005,3.005,0,3.0241,3.0208,3.0221,3.02,3.0163,3.0176,3.0139,3.0137,3.0129,3.0106,3.0123,3.01,3.0108,3.0085,3.0088,3.005,3.0044,3.0043,3.0044,3.0041,3.0041,3.0031,3.0035,3.0048,3.0048,3.0049,3.0049,0,3.0163,3.0171,3.0135,3.0133,3.0131,3.0104,3.0101,3.008,3.0082,3.0053,3.0046,3.0048,3.0023,3.0026,2.9996,2.9998,2.995,2.9957,2.9955,2.9956,2.9923,2.9926,2.9818,2.9804,2.9901,2.99,2.9899,0,3.0114,3.009,3.0086,3.0074,3.0069,3.0048,3.0036,3.0047,3.0033,3.002,3.0,2.9976,2.9958,2.9916,2.9913,2.989,2.9896,2.9859,2.9892,2.989,2.9894,2.9895,2.9893,2.9852,2.9851,2.985,2.985,0,3.0026,3.0032,3.0015,3.0,2.9986,2.9973,2.9962,2.995,2.9961,2.9944,2.992,2.9906,2.9877,2.9853,2.9832,2.9826,2.9838,2.984,2.9831,2.9827,2.9827,2.9826,2.9936,2.9842,2.9842,2.9843,2.9843,2.9844,2.996,2.994,2.9935,2.9916,2.991,2.99,2.988,2.9881,2.9862,2.9842,2.9849,2.9821,2.981,2.9784,2.9776,2.9752,2.9765,2.9752,2.9749,2.9745,2.9741,2.9832,2.9748,2.9749,2.9749,2.9749,2.9749,0,2.9873,2.9872,2.9854,2.984,2.9824,2.9842,2.9831,2.9816,2.9792,2.9783,2.9765,2.9737,2.9714,2.9711,2.9689,2.9671,2.9676,2.9664,2.9665,2.9663,2.9731,2.9741,2.966,2.966,2.966,2.966,2.9661,2.9661,2.9826,2.9793,2.9798,2.9761,2.9759,2.9734,2.9727,2.9717,2.9709,2.9678,2.9661,2.966,2.9652,2.963,2.9609,2.9608,2.9599,2.9585,2.9586,2.9649,2.9658,2.9667,2.9676,2.9583,2.9583,2.952,2.9519,2.9519]}]]